sat.trackr.live / text

‹ back to catalog

STARLINK-1404

NORAD 45686 · 2020-035AF

PAYLOAD ACTIVE UNKNOWN

§ Identity

Operator
Country
US
Launch date
2020-06-04
Launch site
AFETR
Launch vehicle
Mass (kg)
RCS (m²)

Purposes: comms

External: N2YO · Heavens-Above · Gunter

§ Orbital elements

Epoch: 2026-09-20T04:25:54.897024Z

Period
92.55 min
Inclination
53.1497°
Eccentricity
0.0004964
Mean motion
15.55840314 rev/d
Perigee alt
396.3 km
Apogee alt
403.1 km
Semi-major
6,777.8 km
B*
8.8017e-4
RAAN
206.0811°
Arg perigee
102.4531°
Mean anomaly
257.7037°
Rev number
34,903

§ Raw data

STARLINK-14041 45686U 20035AF  26263.18466316  .00061980  00000+0  88017-3 0  99932 45686  53.1497 206.0811 0004964 102.4531 257.7037 15.55840314349033

JSON: /api/v1/satellites/45686 · /tle

For live sub-satellite position, see the globe view (requires WebGL).

§ Visibility from observer

Set your observer location to see the next 7 days of passes ≥ 10°. The values pass through the URL so the page stays shareable.

No JS? Fill the form by hand. The geolocation button needs JavaScript.